Location: Plymouth
(43.7570°N, 71.6890°W)
Time: 22:36:14
(UTC-04:00)

Amateur Radio Satellites - All Passes

Search period start: 02 July 2015 22:06
Search period end: 03 July 2015 22:06
Location: Plymouth, 43.7570°N, 71.6890°W

Satellite Date Start Highest point End Downlink Frequencies (MHz)
Time Altitude Azimuth
AUBIESAT-1 02 Jul 22:10:06 22:14:10 57° 292° (WNW) 22:18:30 437.475
SEEDS 02 Jul 22:15:22 22:16:23 11° 273° (W) 22:17:10 437.485
ZACube-1 02 Jul 22:15:30 22:19:38 51° 261° (W) 22:23:44 437.345
ANTELSAT 02 Jul 22:24:08 22:26:58 17° 91° (E) 22:29:57 437.575/2403.000
UKube-1 02 Jul 22:25:21 22:29:41 72° 74° (ENE) 22:34:01 .
Oscar 11 02 Jul 22:29:44 22:33:11 23° 267° (W) 22:36:33 145.826/435.025
AISAT 02 Jul 22:30:33 22:34:52 49° 72° (ENE) 22:39:12 437.250
TIGRISAT 02 Jul 22:36:59 22:40:22 22° 93° (E) 22:43:53 435.000
M-CUBED/EXP-1 PRIME 02 Jul 22:43:02 22:46:24 24° 297° (WNW) 22:49:52 437.505
HUMSAT D 02 Jul 22:50:52 22:54:51 47° 261° (W) 22:58:49 437.325/437.525
QB50P1 02 Jul 22:51:33 22:53:28 13° 89° (E) 22:55:35 145.935-145.965
FUNcube-1 02 Jul 22:53:42 22:56:58 21° 267° (W) 23:00:08 145.935
CUBEBUG 1 02 Jul 22:54:51 22:59:05 47° 72° (ENE) 23:03:23 437.445
ESTCUBE 1 02 Jul 22:55:14 22:59:40 56° 72° (ENE) 23:04:09 437.505/2401.250
DELFI C3 02 Jul 22:59:19 23:01:36 14° 271° (W) 23:03:43 145.870
UWE-3 02 Jul 23:02:02 23:04:21 14° 271° (W) 23:06:28 435.000/436.395/437.385
NANOSAT C BR1 02 Jul 23:05:46 23:08:41 19° 92° (E) 23:11:42 145.865
Cosmos 2499 02 Jul 23:08:14 23:15:44 54° 268° (W) 23:23:45 435.465 / 435.565
DUCHIFAT 1 02 Jul 23:13:11 23:16:25 22° 93° (E) 23:19:42 145.980
50 SAT 02 Jul 23:14:46 23:18:28 46° 261° (W) 23:22:11 437.505
UNISAT 6 02 Jul 23:15:13 23:19:32 58° 101° (E) 23:23:55 437.425
POLYITAN 1 02 Jul 23:15:32 23:18:58 24° 94° (E) 23:22:28 437.675
TISAT 1 02 Jul 23:19:40 23:22:28 18° 65° (ENE) 23:25:23 437.305
VELOX 1 02 Jul 23:20:30 23:24:52 52° 260° (W) 23:29:15 145.980
BUGSAT 1 02 Jul 23:38:49 23:42:16 26° 95° (E) 23:45:43 437.445
DX 1 02 Jul 23:39:00 23:42:10 19° 268° (W) 23:45:13 434.975-435.025
QB50P2 02 Jul 23:45:06 23:49:13 52° 99° (E) 23:53:21 145.880/145.840
POPSAT HIP 1 02 Jul 23:46:21 23:50:27 51° 100° (E) 23:54:34 437.405
ANTELSAT 02 Jul 23:59:50 00:04:01 47° 288° (WNW) 00:08:17 437.575/2403.000
SPROUT 03 Jul 00:04:18 00:08:36 75° 76° (ENE) 00:12:56 437.525
UKube-1 03 Jul 00:04:58 00:06:23 11° 272° (W) 00:07:33 .
AISAT 03 Jul 00:08:44 00:11:45 17° 269° (W) 00:14:37 437.250
TIGRISAT 03 Jul 00:13:15 00:17:14 36° 290° (WNW) 00:21:15 435.000
QB50P1 03 Jul 00:25:38 00:29:46 57° 287° (WNW) 00:33:52 145.935-145.965
PCSat 03 Jul 00:26:37 00:31:32 34° 48° (NE) 00:36:29 145.827
BEESAT 03 Jul 00:26:58 00:30:07 18° 63° (ENE) 00:33:25 436.000
CUBEBUG 1 03 Jul 00:32:40 00:35:44 18° 269° (W) 00:38:41 437.445
ESTCUBE 1 03 Jul 00:34:11 00:36:57 15° 271° (W) 00:39:34 437.505/2401.250
NANOSAT C BR1 03 Jul 00:40:46 00:44:43 39° 289° (WNW) 00:48:37 145.865
SWISSCUBE 03 Jul 00:41:20 00:45:16 26° 66° (ENE) 00:49:18 437.505
SO-50 03 Jul 00:42:03 00:45:52 22° 38° (NE) 00:49:45 436.795
ITUPSAT 1 03 Jul 00:45:43 00:49:38 26° 66° (ENE) 00:53:40 437.325
DUCHIFAT 1 03 Jul 00:48:31 00:52:19 33° 290° (WNW) 00:56:04 145.980
POLYITAN 1 03 Jul 00:51:11 00:54:55 30° 291° (WNW) 00:58:34 437.675
UNISAT 6 03 Jul 00:53:20 00:55:55 15° 296° (WNW) 00:58:23 437.425
TISAT 1 03 Jul 00:53:50 00:57:56 45° 261° (W) 01:02:02 437.305
BUGSAT 1 03 Jul 01:14:15 01:17:41 26° 292° (WNW) 01:21:02 437.445
Oscar 19 03 Jul 01:17:02 01:20:39 20° 91° (E) 01:24:25 437.125/150
QB50P2 03 Jul 01:22:09 01:24:45 16° 296° (WNW) 01:27:12 145.880/145.840
POPSAT HIP 1 03 Jul 01:23:22 01:25:57 16° 296° (WNW) 01:28:25 437.405
Cosmos 2491 03 Jul 01:33:10 01:40:43 32° 66° (ENE) 01:48:22 435.465 / 435.565
SPROUT 03 Jul 01:44:29 01:45:18 10° 274° (W) 01:45:51 437.525
RS-15 03 Jul 01:48:33 01:57:59 38° 108° (ESE) 02:07:55 29.354- 29.394
BEESAT 03 Jul 02:02:52 02:07:34 56° 260° (W) 02:12:18 436.000
PCSat 03 Jul 02:09:59 02:15:03 40° 247° (WSW) 02:20:02 145.827
KKS-1 03 Jul 02:10:09 02:14:05 32° 69° (ENE) 02:18:04 437.445
YUBILEINY 03 Jul 02:12:06 02:17:47 21° 79° (E) 02:23:53 435.215
SWISSCUBE 03 Jul 02:18:33 02:23:00 37° 263° (W) 02:27:25 437.505
SO-50 03 Jul 02:21:59 02:26:57 71° 238° (WSW) 02:31:49 436.795
ITUPSAT 1 03 Jul 02:22:57 02:27:24 37° 263° (W) 02:31:51 437.325
AIST 1 03 Jul 02:45:46 02:50:01 48° 77° (ENE) 02:54:14
Gurwin Techsat 1B 03 Jul 02:46:15 02:51:14 39° 97° (E) 02:56:13 435.225
JAS-2 03 Jul 02:49:05 02:52:55 16° 87° (E) 02:57:21 435.910
Oscar 19 03 Jul 02:55:24 03:00:23 53° 289° (WNW) 03:05:22 437.125/150
ITAMSAT 1 03 Jul 03:02:48 03:07:55 52° 99° (E) 03:13:00 435.822/435.867
AO-7 03 Jul 03:04:02 03:07:10 13° 83° (E) 03:10:57 29.400- 29.500
STARS 03 Jul 03:06:10 03:10:34 75° 75° (ENE) 03:14:58 437.465
Cosmos 2491 03 Jul 03:29:38 03:38:13 61° 268° (W) 03:46:41 435.465 / 435.565
KKS-1 03 Jul 03:46:58 03:50:45 26° 266° (W) 03:54:28 437.445
MOZHAYETS 4 03 Jul 03:50:55 03:55:05 36° 70° (ENE) 03:59:19
RS-15 03 Jul 03:58:53 04:09:47 67° 311° (NW) 04:21:05 29.354- 29.394
YUBILEINY 03 Jul 04:04:55 04:13:37 85° 279° (W) 04:22:23 435.215
AIST 1 03 Jul 04:24:41 04:27:17 15° 274° (W) 04:29:43
Gurwin Techsat 1B 03 Jul 04:26:31 04:31:06 29° 294° (WNW) 04:35:34 435.225
JAS-2 03 Jul 04:32:14 04:38:44 89° 103° (ESE) 04:46:04 435.910
HORYU 2 03 Jul 04:36:35 04:41:02 67° 102° (ESE) 04:45:29 437.375
ITAMSAT 1 03 Jul 04:43:04 04:47:06 22° 297° (WNW) 04:50:59 435.822/435.867
STARS 03 Jul 04:46:24 04:47:37 11° 273° (W) 04:48:34 437.465
AO-7 03 Jul 04:53:23 05:01:46 69° 105° (ESE) 05:10:05 29.400- 29.500
MOZHAYETS 4 03 Jul 05:28:42 05:32:26 24° 268° (W) 05:36:06
Cosmos 2491 03 Jul 05:31:19 05:33:24 11° 287° (WNW) 05:34:43 435.465 / 435.565
Cosmos 2504 03 Jul 05:37:55 05:44:37 44° 90° (E) 05:51:22 435.465 / 435.565
CUBESAT XI-V 03 Jul 05:49:26 05:54:00 53° 73° (ENE) 05:58:37 437.345
Cubesat XI-IV 03 Jul 06:00:11 06:03:38 18° 89° (E) 06:07:16 437.490
STRAND 1 03 Jul 06:04:52 06:09:19 31° 67° (ENE) 06:13:53 437.568
YUBILEINY 03 Jul 06:06:01 06:12:05 19° 303° (WNW) 06:17:45 435.215
HORYU 2 03 Jul 06:14:47 06:17:12 14° 298° (WNW) 06:19:26 437.375
RS-15 03 Jul 06:15:27 06:24:52 29° 342° (NNW) 06:34:31 29.354- 29.394
JAS-2 03 Jul 06:18:54 06:23:16 19° 300° (WNW) 06:27:40 435.910
O/OREOS (USA 219) 03 Jul 06:39:29 06:40:31 11° 99° (E) 06:41:47 437.305
PRISM 03 Jul 06:45:36 06:49:44 68° 74° (ENE) 06:53:55 437.425
AO-7 03 Jul 06:46:55 06:54:02 31° 304° (NW) 07:00:57 29.400- 29.500
CUSAT 1 03 Jul 07:03:23 07:07:43 20° 93° (E) 07:11:36 437.405
CUTE-I 03 Jul 07:05:10 07:10:32 66° 102° (ESE) 07:15:52 437.470
AUBIESAT-1 03 Jul 07:26:20 07:28:38 18° 61° (ENE) 07:31:06 437.475
CUBESAT XI-V 03 Jul 07:28:37 07:31:49 17° 271° (W) 07:34:51 437.345
Cosmos 2504 03 Jul 07:31:42 07:38:13 34° 290° (WNW) 07:44:37 435.465 / 435.565
Cubesat XI-IV 03 Jul 07:38:56 07:44:17 64° 288° (WNW) 07:49:34 437.490
VERMONT LUNAR 03 Jul 07:41:56 07:42:58 11° 151° (SSE) 07:44:04 437.305
STRAND 1 03 Jul 07:43:47 07:48:29 35° 264° (W) 07:53:10 437.568
BEESAT 3 03 Jul 07:44:49 07:48:48 55° 120° (ESE) 07:52:50 437.485
DANDE 03 Jul 07:53:50 08:00:40 42° 95° (E) 08:06:06 436.750
BEESAT 2 03 Jul 07:54:46 07:58:46 56° 120° (ESE) 08:02:51 435.950
M-CUBED/EXP-1 PRIME 03 Jul 07:58:05 08:01:17 50° 68° (ENE) 08:04:37 437.505
O/OREOS (USA 219) 03 Jul 08:14:54 08:19:22 75° 296° (WNW) 08:23:51 437.305
SEEDS 03 Jul 08:21:26 08:22:17 11° 87° (E) 08:23:24 437.485
PRISM 03 Jul 08:24:26 08:25:43 11° 272° (W) 08:26:46 437.425
RS-15 03 Jul 08:32:36 08:41:59 28° 16° (NNE) 08:51:51 29.354- 29.394
AAUSAT CUBESAT 2 03 Jul 08:36:38 08:37:16 10° 87° (E) 08:38:11 437.432
GONETS M04 03 Jul 08:41:30 08:49:30 43° 88° (E) 08:57:35
ISS 03 Jul 08:43:02 08:46:04 38° 141° (SE) 08:49:07 145.825
CUSAT 1 03 Jul 08:43:41 08:50:15 61° 282° (WNW) 08:55:14 437.405
GOMX 1 03 Jul 08:44:46 08:48:48 42° 97° (E) 08:52:45 467.674
CUTE-I 03 Jul 08:46:24 08:50:09 19° 299° (WNW) 08:53:43 437.470
HO-68 03 Jul 08:47:43 08:54:09 36° 96° (E) 09:00:41 435.675
CINEMA 3 03 Jul 08:56:30 08:59:02 16° 90° (E) 09:01:45 145.822/145.860
COMPASS 1 03 Jul 08:59:10 09:02:29 23° 93° (E) 09:05:52 437.405
AUBIESAT-1 03 Jul 09:00:23 09:03:17 27° 259° (W) 09:06:14 437.475
BRITE-PL 03 Jul 09:01:35 09:05:59 73° 285° (WNW) 09:10:08 437.365/2234.400
AIST 2 03 Jul 09:03:03 09:07:17 73° 122° (ESE) 09:11:34 435.215
CUTE 1.7 + AOD 2 03 Jul 09:03:49 09:07:49 39° 97° (E) 09:11:52 437.475
CANX-2 03 Jul 09:06:51 09:11:00 46° 98° (E) 09:15:09 2200.000
PHONESAT 2.4 03 Jul 09:14:13 09:15:49 13° 151° (SSE) 09:17:29 2401.200-2431.200
VERMONT LUNAR 03 Jul 09:16:31 09:19:22 33° 166° (SSE) 09:22:15 437.305
BEESAT 3 03 Jul 09:24:02 09:27:06 20° 319° (NW) 09:30:06 437.485
ANTELSAT 03 Jul 09:24:56 09:27:48 18° 65° (ENE) 09:30:47 437.575/2403.000
BEESAT 2 03 Jul 09:34:05 09:37:11 20° 319° (NW) 09:40:14 435.950
DOVE 4 03 Jul 09:36:02 09:40:13 84° 284° (WNW) 09:44:22 437.250
DANDE 03 Jul 09:37:21 09:43:51 34° 287° (WNW) 09:48:58 436.750
TIGRISAT 03 Jul 09:37:25 09:40:46 23° 67° (ENE) 09:44:11 435.000
QB50P1 03 Jul 09:46:07 09:48:03 13° 63° (ENE) 09:50:10 145.935-145.965
CUBEBUG 2 03 Jul 09:53:56 09:57:43 32° 96° (E) 10:01:35 437.445
SEEDS 03 Jul 09:54:24 09:58:39 72° 285° (WNW) 10:02:54 437.485
Cosmos 2499 03 Jul 09:56:07 10:01:07 22° 83° (E) 10:06:25 435.465 / 435.565
O/OREOS (USA 219) 03 Jul 09:58:45 09:59:42 10° 315° (NW) 10:00:27 437.305
NANOSAT C BR1 03 Jul 09:59:57 10:02:45 18° 65° (ENE) 10:05:41 145.865
ZACube-1 03 Jul 10:02:51 10:06:20 25° 94° (E) 10:09:55 437.345
DUCHIFAT 1 03 Jul 10:07:05 10:10:10 21° 66° (ENE) 10:13:22 145.980
AAUSAT CUBESAT 2 03 Jul 10:09:14 10:13:27 72° 285° (WNW) 10:17:38 437.432
POLYITAN 1 03 Jul 10:10:01 10:13:21 23° 67° (ENE) 10:16:44 437.675
UKube-1 03 Jul 10:14:21 10:15:04 10° 87° (E) 10:16:04 .
Oscar 11 03 Jul 10:14:31 10:18:49 58° 100° (E) 10:23:06 145.826/435.025
UNISAT 6 03 Jul 10:15:31 10:19:44 60° 74° (ENE) 10:23:57 437.425
ISS 03 Jul 10:19:27 10:22:29 36° 338° (NNW) 10:25:32 145.825
GOMX 1 03 Jul 10:23:46 10:26:41 18° 295° (WNW) 10:29:24 467.674
BUGSAT 1 03 Jul 10:30:09 10:33:33 24° 68° (ENE) 10:37:00 437.445
CINEMA 3 03 Jul 10:32:34 10:36:32 44° 288° (WNW) 10:40:32 145.822/145.860
HUMSAT D 03 Jul 10:33:44 10:37:04 24° 94° (E) 10:40:29 437.325/437.525
COMPASS 1 03 Jul 10:34:24 10:38:14 33° 290° (WNW) 10:42:00 437.405
DELFI C3 03 Jul 10:34:48 10:38:52 69° 101° (E) 10:42:56 145.870
HO-68 03 Jul 10:35:16 10:42:05 47° 294° (WNW) 10:48:49 435.675
GONETS M04 03 Jul 10:37:58 10:46:21 45° 288° (WNW) 10:54:38
QB50P2 03 Jul 10:39:05 10:43:10 46° 72° (ENE) 10:47:15 145.880/145.840
FUNcube-1 03 Jul 10:39:12 10:43:22 62° 101° (E) 10:47:36 145.935
POPSAT HIP 1 03 Jul 10:40:12 10:44:15 46° 72° (ENE) 10:48:20 437.405
CUTE 1.7 + AOD 2 03 Jul 10:40:17 10:43:31 21° 293° (WNW) 10:46:40 437.475
AIST 2 03 Jul 10:43:26 10:46:23 17° 322° (NW) 10:49:14 435.215
CANX-2 03 Jul 10:43:41 10:46:37 18° 294° (WNW) 10:49:25 2200.000
RS-15 03 Jul 10:46:03 10:57:31 60° 46° (NE) 11:09:30 29.354- 29.394
UWE-3 03 Jul 10:47:50 10:52:02 80° 284° (WNW) 10:56:19 435.000/436.395/437.385
ESTCUBE 1 03 Jul 10:49:21 10:50:14 11° 86° (E) 10:51:23 437.505/2401.250
50 SAT 03 Jul 10:49:50 10:52:25 17° 92° (E) 10:55:06 437.505
PHONESAT 2.4 03 Jul 10:50:06 10:53:17 36° 166° (SSE) 10:56:30 2401.200-2431.200
VERMONT LUNAR 03 Jul 10:53:00 10:56:02 45° 183° (S) 10:59:05 437.305
ANTELSAT 03 Jul 11:00:12 11:04:18 44° 261° (W) 11:08:25 437.575/2403.000
VELOX 1 03 Jul 11:10:00 11:13:41 26° 94° (E) 11:17:25 145.980
TIGRISAT 03 Jul 11:13:29 11:17:24 33° 264° (W) 11:21:15 435.000
QB50P1 03 Jul 11:19:13 11:23:27 65° 259° (WSW) 11:27:41 145.935-145.965
DX 1 03 Jul 11:24:24 11:28:45 68° 102° (ESE) 11:33:03 434.975-435.025
CUBEBUG 2 03 Jul 11:30:56 11:34:17 23° 292° (WNW) 11:37:36 437.445
NANOSAT C BR1 03 Jul 11:34:13 11:38:17 45° 261° (W) 11:42:22 145.865
ZACube-1 03 Jul 11:39:02 11:42:43 29° 291° (WNW) 11:46:23 437.345
DUCHIFAT 1 03 Jul 11:41:48 11:45:46 38° 263° (W) 11:49:43 145.980
POLYITAN 1 03 Jul 11:45:13 11:49:06 33° 263° (W) 11:52:57 437.675
Cosmos 2499 03 Jul 11:46:39 11:53:39 65° 282° (WNW) 12:00:46 435.465 / 435.565
UKube-1 03 Jul 11:47:29 11:51:49 75° 285° (WNW) 11:56:07 .
SPROUT 03 Jul 11:51:47 11:53:16 12° 87° (E) 11:54:59 437.525
Oscar 11 03 Jul 11:52:01 11:54:35 15° 296° (WNW) 11:57:01 145.826/435.025
UNISAT 6 03 Jul 11:54:58 11:57:00 13° 272° (W) 11:58:49 437.425
AISAT 03 Jul 11:56:09 12:00:36 84° 103° (ESE) 12:05:00 437.250
ISS 03 Jul 11:57:02 11:59:31 20° 358° (N) 12:02:00 145.825
BUGSAT 1 03 Jul 12:05:05 12:08:54 31° 264° (W) 12:12:40 437.445
HUMSAT D 03 Jul 12:09:10 12:12:51 31° 290° (WNW) 12:16:30 437.325/437.525
DELFI C3 03 Jul 12:11:56 12:13:28 12° 297° (WNW) 12:14:48 145.870
QB50P2 03 Jul 12:16:33 12:19:20 16° 270° (W) 12:21:58 145.880/145.840
FUNcube-1 03 Jul 12:17:08 12:19:17 14° 296° (WNW) 12:21:17 145.935
POPSAT HIP 1 03 Jul 12:17:38 12:20:25 16° 269° (W) 12:23:03 437.405
CUBEBUG 1 03 Jul 12:18:25 12:22:49 80° 103° (ESE) 12:27:09 437.445
YUBILEINY 03 Jul 12:20:55 12:22:22 11° 48° (NE) 12:24:29 435.215
ESTCUBE 1 03 Jul 12:23:12 12:27:47 80° 285° (WNW) 12:32:18 437.505/2401.250
50 SAT 03 Jul 12:23:35 12:27:13 37° 289° (WNW) 12:30:49 437.505
HO-68 03 Jul 12:27:17 12:28:15 10° 314° (NW) 12:28:49 435.675
PHONESAT 2.4 03 Jul 12:27:42 12:31:02 48° 183° (S) 12:34:25 2401.200-2431.200
VERMONT LUNAR 03 Jul 12:30:00 12:32:38 24° 199° (SSW) 12:35:16 437.305
Gurwin Techsat 1B 03 Jul 12:33:33 12:34:41 11° 56° (ENE) 12:36:06 435.225
Oscar 19 03 Jul 12:34:54 12:39:26 33° 67° (ENE) 12:44:02 437.125/150
TISAT 1 03 Jul 12:37:20 12:40:43 24° 94° (E) 12:44:09 437.305
ITAMSAT 1 03 Jul 12:46:00 12:48:24 14° 59° (ENE) 12:51:03 435.822/435.867
VELOX 1 03 Jul 12:46:21 12:50:16 31° 292° (WNW) 12:54:07 145.980
RS-15 03 Jul 12:58:52 13:09:53 47° 248° (WSW) 13:21:06 29.354- 29.394
DX 1 03 Jul 13:02:18 13:04:30 13° 298° (WNW) 13:06:31 434.975-435.025
SPROUT 03 Jul 13:25:37 13:29:53 65° 286° (WNW) 13:34:05 437.525
ISS 03 Jul 13:33:41 13:36:36 30° 18° (NNE) 13:39:31 145.825
AISAT 03 Jul 13:35:07 13:36:34 11° 300° (WNW) 13:37:48 437.250
Cosmos 2499 03 Jul 13:46:25 13:48:41 11° 307° (NW) 13:50:29 435.465 / 435.565
CUBEBUG 1 03 Jul 13:56:59 13:58:36 12° 299° (WNW) 14:00:00 437.445
BEESAT 03 Jul 14:01:54 14:06:13 33° 96° (E) 14:10:34 436.000
AO-7 03 Jul 14:03:32 14:09:52 26° 53° (NE) 14:16:27 29.400- 29.500
PHONESAT 2.4 03 Jul 14:05:45 14:08:44 27° 200° (SSW) 14:11:43 2401.200-2431.200
Gurwin Techsat 1B 03 Jul 14:08:32 14:13:48 70° 74° (ENE) 14:19:08 435.225
TISAT 1 03 Jul 14:12:49 14:16:32 30° 291° (WNW) 14:20:10 437.305
YUBILEINY 03 Jul 14:13:29 14:21:58 52° 74° (ENE) 14:30:31 435.215
Oscar 19 03 Jul 14:14:11 14:18:48 32° 265° (W) 14:23:22 437.125/150
SWISSCUBE 03 Jul 14:17:05 14:21:46 51° 100° (E) 14:26:27 437.505
ITUPSAT 1 03 Jul 14:21:45 14:26:28 51° 100° (E) 14:31:09 437.325
ITAMSAT 1 03 Jul 14:22:00 14:27:14 89° 48° (NE) 14:32:31 435.822/435.867
Cosmos 2491 03 Jul 14:36:28 14:44:00 34° 85° (E) 14:51:43 435.465 / 435.565
JAS-2 03 Jul 14:47:16 14:52:03 40° 68° (ENE) 14:57:06 435.910
STARS 03 Jul 14:56:32 14:58:13 12° 88° (E) 15:00:08 437.465
ISS 03 Jul 15:09:58 15:13:09 55° 217° (SW) 15:16:20 145.825
PCSat 03 Jul 15:10:47 15:14:44 22° 108° (ESE) 15:18:51 145.827
AIST 1 03 Jul 15:16:50 15:20:31 27° 90° (E) 15:24:17
Cosmos 2504 03 Jul 15:28:13 15:33:01 18° 60° (ENE) 15:38:22 435.465 / 435.565
KKS-1 03 Jul 15:35:49 15:40:10 53° 100° (E) 15:44:30 437.445
HORYU 2 03 Jul 15:35:55 15:40:19 73° 74° (ENE) 15:44:45 437.375
BEESAT 03 Jul 15:39:50 15:44:00 29° 293° (WNW) 15:48:05 436.000
AIST 2 03 Jul 15:46:38 15:48:28 13° 33° (NNE) 15:50:24 435.215
Gurwin Techsat 1B 03 Jul 15:51:10 15:54:25 16° 272° (W) 15:57:27 435.225
AO-7 03 Jul 15:53:29 16:01:51 84° 253° (WSW) 16:10:17 29.400- 29.500
SWISSCUBE 03 Jul 15:55:45 15:59:18 20° 296° (WNW) 16:02:42 437.505
ITUPSAT 1 03 Jul 16:00:28 16:04:01 20° 296° (WNW) 16:07:27 437.325
BEESAT 3 03 Jul 16:02:10 16:06:09 51° 51° (NE) 16:10:04 437.485
ITAMSAT 1 03 Jul 16:05:41 16:07:35 12° 274° (W) 16:09:10 435.822/435.867
YUBILEINY 03 Jul 16:10:46 16:18:35 37° 274° (W) 16:26:14 435.215
BEESAT 2 03 Jul 16:12:41 16:16:42 52° 51° (NE) 16:20:39 435.950
STARS 03 Jul 16:30:51 16:35:12 65° 286° (WNW) 16:39:31 437.465
Cosmos 2491 03 Jul 16:31:54 16:40:33 56° 285° (WNW) 16:49:11 435.465 / 435.565
JAS-2 03 Jul 16:33:12 16:37:28 25° 268° (W) 16:41:46 435.910
SO-50 03 Jul 16:37:56 16:41:56 28° 114° (ESE) 16:46:07 436.795
O/OREOS (USA 219) 03 Jul 16:44:37 16:48:33 29° 57° (ENE) 16:52:32 437.305
CUTE-I 03 Jul 16:50:42 16:54:12 18° 61° (ENE) 16:57:52 437.470
PCSat 03 Jul 16:52:26 16:57:46 58° 306° (NW) 17:03:09 145.827
AIST 1 03 Jul 16:54:20 16:58:09 27° 288° (WNW) 17:01:55
KKS-1 03 Jul 17:13:32 17:16:26 17° 296° (WNW) 17:19:13 437.445
HORYU 2 03 Jul 17:16:07 17:17:34 11° 273° (W) 17:18:46 437.375
Cosmos 2504 03 Jul 17:19:57 17:27:40 86° 82° (E) 17:35:57 435.465 / 435.565
MOZHAYETS 4 03 Jul 17:21:13 17:25:53 74° 101° (E) 17:30:33
Cubesat XI-IV 03 Jul 17:23:03 17:27:47 34° 67° (ENE) 17:32:37 437.490
AIST 2 03 Jul 17:23:39 17:27:52 71° 53° (NE) 17:32:00 435.215
BEESAT 3 03 Jul 17:41:08 17:43:45 16° 248° (WSW) 17:46:12 437.485
CUBESAT XI-V 03 Jul 17:46:54 17:48:38 12° 86° (E) 17:50:36 437.345
AO-7 03 Jul 17:50:38 17:56:03 18° 273° (W) 18:01:01 29.400- 29.500
BEESAT 2 03 Jul 17:51:47 17:54:24 16° 248° (WSW) 17:56:51 435.950
SO-50 03 Jul 18:17:48 18:22:20 41° 313° (NW) 18:27:00 436.795
O/OREOS (USA 219) 03 Jul 18:23:58 18:27:58 31° 255° (WSW) 18:31:56 437.305
CUTE-I 03 Jul 18:28:26 18:33:46 69° 258° (WSW) 18:39:10 437.470
BRITE-PL 03 Jul 18:36:02 18:39:48 20° 65° (ENE) 18:43:35 437.365/2234.400
DANDE 03 Jul 18:36:07 18:37:37 13° 65° (ENE) 18:39:06 436.750
Cosmos 2491 03 Jul 18:36:52 18:40:03 12° 311° (NW) 18:42:38 435.465 / 435.565
PCSat 03 Jul 18:39:41 18:42:27 14° 328° (NNW) 18:45:02 145.827
GONETS M04 03 Jul 18:50:10 18:56:30 22° 60° (ENE) 19:03:07
MOZHAYETS 4 03 Jul 19:00:10 19:02:35 14° 298° (WNW) 19:04:48
Cubesat XI-IV 03 Jul 19:02:59 19:07:52 34° 264° (W) 19:12:45 437.490
AIST 2 03 Jul 19:04:08 19:05:55 12° 250° (WSW) 19:07:31 435.215
DOVE 4 03 Jul 19:07:32 19:09:51 14° 64° (ENE) 19:12:19 437.250
Cosmos 2504 03 Jul 19:15:08 19:20:19 19° 279° (W) 19:25:17 435.465 / 435.565
HO-68 03 Jul 19:18:05 19:24:09 32° 61° (ENE) 19:30:22 435.675
CUSAT 1 03 Jul 19:20:54 19:23:35 65° 261° (W) 19:26:09 437.405
CUBESAT XI-V 03 Jul 19:22:00 19:26:43 74° 285° (WNW) 19:31:21 437.345
COMPASS 1 03 Jul 19:52:08 19:55:03 19° 66° (ENE) 19:58:03 437.405
STRAND 1 03 Jul 19:52:19 19:57:30 73° 103° (ESE) 20:02:37 437.568
GOMX 1 03 Jul 19:53:17 19:58:22 59° 73° (ENE) 20:03:08 467.674
CUTE 1.7 + AOD 2 03 Jul 19:58:01 20:01:46 33° 70° (ENE) 20:05:35 437.475
CINEMA 3 03 Jul 19:59:36 20:02:46 20° 67° (ENE) 20:05:57 145.822/145.860
CANX-2 03 Jul 20:01:03 20:04:57 39° 71° (ENE) 20:08:55 2200.000
PRISM 03 Jul 20:01:48 20:06:03 87° 285° (WNW) 20:10:14 437.425
SO-50 03 Jul 20:02:48 20:04:16 11° 335° (NNW) 20:05:37 436.795
BRITE-PL 03 Jul 20:12:32 20:17:59 61° 259° (W) 20:23:07 437.365/2234.400
UWE-3 03 Jul 20:14:17 20:14:25 10° 62° (ENE) 20:14:46 435.000/436.395/437.385
DANDE 03 Jul 20:18:57 20:20:47 15° 270° (W) 20:22:24 436.750
AUBIESAT-1 03 Jul 20:39:01 20:41:24 15° 96° (E) 20:44:04 437.475
DOVE 4 03 Jul 20:42:17 20:47:11 74° 258° (WSW) 20:51:50 437.250
GONETS M04 03 Jul 20:45:54 20:54:39 84° 265° (W) 21:03:20
SEEDS 03 Jul 20:47:24 20:51:34 88° 257° (WSW) 20:55:47 437.485
CUBEBUG 2 03 Jul 20:53:37 20:57:26 32° 70° (ENE) 21:01:13 437.445
ZACube-1 03 Jul 21:00:28 21:03:49 24° 68° (ENE) 21:07:14 437.345
AAUSAT CUBESAT 2 03 Jul 21:00:54 21:05:03 89° 79° (E) 21:09:14 437.432
HO-68 03 Jul 21:04:36 21:11:36 55° 259° (W) 21:18:37 435.675
UKube-1 03 Jul 21:10:17 21:12:00 12° 61° (ENE) 21:13:54 .
Oscar 11 03 Jul 21:10:25 21:14:35 52° 73° (ENE) 21:18:48 145.826/435.025
M-CUBED/EXP-1 PRIME 03 Jul 21:11:11 21:15:05 37° 103° (ESE) 21:19:16 437.505
AISAT 03 Jul 21:22:35 21:23:23 11° 60° (ENE) 21:24:27 437.250
DELFI C3 03 Jul 21:23:07 21:26:58 48° 73° (ENE) 21:30:52 145.870
COMPASS 1 03 Jul 21:26:33 21:30:27 40° 263° (W) 21:34:24 437.405
HUMSAT D 03 Jul 21:27:15 21:30:14 20° 67° (ENE) 21:33:19 437.325/437.525
STRAND 1 03 Jul 21:32:55 21:36:10 17° 299° (WNW) 21:39:13 437.568
GOMX 1 03 Jul 21:33:22 21:36:50 17° 270° (W) 21:40:00 467.674
CUTE 1.7 + AOD 2 03 Jul 21:34:23 21:37:46 22° 267° (W) 21:41:05 437.475
Cosmos 2499 03 Jul 21:34:34 21:42:01 48° 74° (ENE) 21:50:04 435.465 / 435.565
CINEMA 3 03 Jul 21:35:25 21:39:45 43° 262° (W) 21:43:55 145.822/145.860
FUNcube-1 03 Jul 21:36:11 21:40:17 56° 74° (ENE) 21:44:22 145.935
50 SAT 03 Jul 21:36:31 21:38:05 12° 64° (ENE) 21:39:50 437.505
CANX-2 03 Jul 21:38:01 21:41:05 19° 269° (W) 21:44:03 2200.000
UWE-3 03 Jul 21:46:07 21:50:24 85° 257° (WSW) 21:54:36 435.000/436.395/437.385
ESTCUBE 1 03 Jul 21:50:01 21:52:03 13° 61° (ENE) 21:54:18 437.505/2401.250
